Stations météo

Publicité
Angers, France (7230): Température de l'air & dewpoint: 17.10.2018 04:00:00 - 23.10.2018 04:00:00 (CEST)Angers, France (7230): Température de l'air 5cm: 17.10.2018 04:00:00 - 23.10.2018 04:00:00 (CEST)Angers, France (7230): Température de l'air -20cm: 17.10.2018 04:00:00 - 23.10.2018 04:00:00 (CEST)Angers, France (7230): Vitesse du vent & gusts: 17.10.2018 04:00:00 - 23.10.2018 04:00:00 (CEST)Angers, France (7230): Direction du vent: 17.10.2018 04:00:00 - 23.10.2018 04:00:00 (CEST)Angers, France (7230): reduced air pressure: 17.10.2018 04:00:00 - 23.10.2018 04:00:00 (CEST)Angers, France (7230): visibility: 17.10.2018 04:00:00 - 23.10.2018 04:00:00 (CEST)Angers, France (7230): Ensoleillement: 17.10.2018 04:00:00 - 23.10.2018 04:00:00 (CEST)Angers, France (7230): Quantités de précipitations: 17.10.2018 04:00:00 - 23.10.2018 04:00:00 (CEST)
Date & Time tt [°C] td [°C] tt 5cm [°C] tt -20cm [°C] ff [km/h] ff [knt] fx [km/h] fx [knt] dd ppp [hPa] vv [km] sd [min] rr [mm]
23.10.2018 04:00:00 - - - - - - - - - - - - -
23.10.2018 03:00:00 6,5 5,4 3,9 13,7 5 3 9 5 N 1035,4 20 0 0,0
23.10.2018 02:00:00 7,3 5,9 5,2 13,9 6 3 12 6 N 1035,5 20 0 0,0
23.10.2018 01:00:00 8,3 6,4 6,4 14,0 5 3 15 8 NNE 1035,6 20 0 0,0
23.10.2018 00:00:00 9,5 7,3 8,3 14,1 9 5 21 11 N 1035,8 20 0 0,0
22.10.2018 23:00:00 10,7 8,3 9,2 14,2 13 7 22 12 N 1035,4 20 0 0,0
22.10.2018 22:00:00 11,6 8,3 10,0 14,3 9 5 31 17 NNE 1034,7 20 0 0,0
22.10.2018 21:00:00 13,3 9,7 12,5 14,3 14 8 29 15 NNE 1034,4 20 0 0,0
22.10.2018 20:00:00 14,2 10,6 13,9 14,3 15 8 32 18 NNE 1033,9 20 0 0,0
22.10.2018 19:00:00 14,4 10,8 14,2 14,3 16 9 40 21 NNE 1033,3 20 0 0,0
22.10.2018 18:00:00 14,7 11,3 14,8 14,2 19 11 38 20 NNE 1033,0 20 0 0,0
22.10.2018 17:00:00 15,3 11,7 15,8 14,1 20 11 35 19 NNE 1032,4 20 0 0,0
22.10.2018 16:00:00 15,5 12,3 15,5 14,0 18 10 39 21 NNE 1031,8 20 0 0,0
22.10.2018 15:00:00 15,5 12,8 16,0 13,9 19 11 34 19 NE 1031,8 20 0 0,0
22.10.2018 14:00:00 15,4 12,9 15,9 13,7 16 9 39 21 NE 1031,9 16 0 0,0
22.10.2018 13:00:00 15,8 12,4 16,6 13,6 21 11 36 19 NNE 1032,0 15 22 0,0
22.10.2018 12:00:00 15,7 12,1 18,2 13,4 21 11 40 22 NNE 1031,3 12 57 0,0
22.10.2018 11:00:00 14,7 12,0 15,0 13,4 14 8 29 16 NNE 1031,2 9 60 0,0
22.10.2018 10:00:00 12,1 11,2 10,8 13,4 8 4 19 10 N 1030,5 4,2 18 0,0
22.10.2018 09:00:00 11,3 11,0 7,5 13,5 7 4 14 8 N 1030,1 3,6 0 0,0
22.10.2018 08:00:00 9,9 9,6 5,5 13,6 0 0 7 4 N 1029,4 2,9 0 0,0
22.10.2018 07:00:00 9,1 8,6 5,1 13,7 3 2 5 3 NNW 1028,9 3,0 0 0,0
22.10.2018 06:00:00 9,7 8,9 6,9 13,8 4 2 10 5 NNW 1028,6 5 0 0,0
22.10.2018 05:00:00 9,4 8,6 6,5 13,9 5 3 7 4 NW 1028,4 4,6 0 0,0
22.10.2018 04:00:00 10,5 9,3 8,8 13,9 5 3 12 7 N 1028,0 7 0 0,0
22.10.2018 03:00:00 11,1 9,2 9,9 14,0 7 4 15 8 N 1027,6 10 0 0,0
22.10.2018 02:00:00 11,7 9,6 9,6 14,1 8 5 14 7 NE 1027,4 14 0 0,0
22.10.2018 01:00:00 11,1 8,5 7,1 14,3 7 4 11 6 N 1027,1 20 0 0,0
22.10.2018 00:00:00 10,9 5,0 7,2 14,4 4 2 11 6 NW 1027,2 20 0 0,0
21.10.2018 23:00:00 12,3 4,5 10,0 14,5 8 4 15 8 NNE 1026,4 20 0 0,0
21.10.2018 22:00:00 13,1 5,5 10,8 14,6 8 4 15 8 NNE 1025,9 20 0 0,0
21.10.2018 21:00:00 13,8 6,6 10,4 14,7 7 4 12 7 NNE 1025,8 20 0 0,0
21.10.2018 20:00:00 14,8 6,9 12,2 14,8 7 4 12 7 NNE 1025,5 20 0 0,0
21.10.2018 19:00:00 16,1 7,3 14,0 14,7 8 4 14 8 NNE 1025,2 20 40 0,0
21.10.2018 18:00:00 18,4 8,1 21,8 14,6 10 5 17 9 NNE 1025,0 20 60 0,0
21.10.2018 17:00:00 19,2 9,9 24,2 14,3 8 5 20 11 N 1025,2 18 60 0,0
21.10.2018 16:00:00 19,1 10,1 23,6 14,0 10 6 18 10 N 1025,5 18 60 0,0
21.10.2018 15:00:00 18,2 10,3 22,5 13,7 10 5 20 11 NE 1026,0 13 60 0,0
21.10.2018 14:00:00 17,4 10,7 21,2 13,4 6 4 18 10 NE 1026,4 13 60 0,0
21.10.2018 13:00:00 15,4 10,4 18,7 13,2 9 5 16 9 NE 1027,0 10 60 0,0
21.10.2018 12:00:00 13,1 9,5 15,3 13,1 8 4 16 9 ENE 1027,3 10 60 0,0
21.10.2018 11:00:00 10,0 8,3 11,1 13,2 9 5 22 12 NE 1027,6 7 60 0,0
21.10.2018 10:00:00 7,6 7,0 5,3 13,3 6 4 13 7 NE 1028,2 6 60 0,0
21.10.2018 09:00:00 5,8 5,5 3,5 13,4 5 3 11 6 N 1028,1 4,8 0 0,0
21.10.2018 08:00:00 5,5 5,4 1,0 13,6 6 4 11 6 NNE 1027,7 4,8 0 0,0
21.10.2018 07:00:00 5,2 4,9 1,1 13,7 2 1 4 2 NNE 1027,4 1,5 0 0,2
21.10.2018 06:00:00 5,8 5,4 1,0 13,9 0 0 4 2 N 1027,7 3,2 0 0,0
21.10.2018 05:00:00 6,6 6,0 2,3 14,1 2 1 5 3 NNE 1028,1 4,3 0 0,0
21.10.2018 04:00:00 7,5 6,4 4,0 14,2 4 2 6 4 NE 1028,7 6 0 0,0
21.10.2018 03:00:00 8,4 7,0 4,5 14,4 3 2 8 5 ENE 1028,8 9 0 0,0
21.10.2018 02:00:00 8,8 7,1 6,3 14,5 0 0 13 7 N 1029,2 8 0 0,0
21.10.2018 01:00:00 9,9 7,7 8,4 14,7 8 4 21 11 NE 1029,1 11 0 0,0
21.10.2018 00:00:00 10,2 8,3 6,2 14,8 11 6 19 10 NE 1029,3 10 0 0,0
20.10.2018 23:00:00 10,3 8,6 5,6 15,0 7 4 11 6 NNE 1029,3 10 0 0,0
20.10.2018 22:00:00 10,3 8,6 5,8 15,2 5 3 7 4 N 1029,3 8 0 0,0
20.10.2018 21:00:00 12,1 9,5 8,2 15,3 5 3 10 5 NNE 1028,7 12 0 0,0
20.10.2018 20:00:00 13,3 9,7 9,1 15,4 8 4 14 8 NNE 1028,7 16 0 0,0
20.10.2018 19:00:00 15,2 10,2 13,9 15,4 9 5 21 11 NE 1028,3 18 41 0,0
20.10.2018 18:00:00 17,5 10,6 20,2 15,3 11 6 24 13 NNE 1028,0 19 60 0,0
20.10.2018 17:00:00 18,2 11,3 21,8 15,1 11 6 27 15 NNE 1028,2 17 60 0,0
20.10.2018 16:00:00 18,0 11,5 22,1 14,8 14 8 25 13 NNE 1028,5 16 60 0,0
20.10.2018 15:00:00 17,4 11,7 21,9 14,6 14 8 25 14 NNE 1029,0 12 60 0,0
20.10.2018 14:00:00 16,7 11,0 20,2 14,3 13 7 27 15 NE 1029,4 11 60 0,0
20.10.2018 13:00:00 15,5 10,7 17,4 14,2 9 5 25 13 ENE 1030,0 10 60 0,0
20.10.2018 12:00:00 13,1 9,9 16,2 14,2 13 7 23 13 ENE 1030,1 9 60 0,0
20.10.2018 11:00:00 11,3 9,2 13,0 14,2 13 7 22 12 NNE 1029,6 9 60 0,0
20.10.2018 10:00:00 9,8 8,1 9,0 14,3 10 6 16 9 NE 1028,9 10 60 0,0
20.10.2018 09:00:00 8,6 7,4 7,3 14,4 7 4 14 8 NNE 1028,5 12 0 0,0
20.10.2018 08:00:00 8,8 7,4 7,6 14,5 7 4 16 8 NNE 1028,0 13 0 0,0
20.10.2018 07:00:00 9,2 8,0 8,2 14,6 9 5 16 9 NNE 1027,8 10 0 0,2
20.10.2018 06:00:00 9,7 8,8 8,7 14,7 9 5 17 9 N 1027,6 7 0 0,0
20.10.2018 05:00:00 9,9 9,0 8,9 14,8 8 4 16 9 NNE 1026,8 4,9 0 0,0
20.10.2018 04:00:00 10,4 9,5 9,4 15,0 8 5 16 9 NNE 1027,0 4,9 0 0,0
20.10.2018 03:00:00 10,5 9,6 9,1 15,1 7 4 18 10 NNE 1026,7 4,7 0 0,0
20.10.2018 02:00:00 11,0 9,9 9,5 15,2 11 6 18 10 N 1026,7 4,8 0 0,0
20.10.2018 01:00:00 11,2 10,1 9,8 15,3 9 5 15 8 N 1026,5 4,7 0 0,0
20.10.2018 00:00:00 11,2 10,3 9,5 15,5 8 4 11 6 N 1026,0 3,8 0 0,0
19.10.2018 23:00:00 11,9 10,5 9,7 15,6 6 3 13 7 NNE 1025,8 4,5 0 0,0
19.10.2018 22:00:00 13,0 10,9 11,8 15,7 9 5 21 11 NE 1025,4 5 0 0,0
19.10.2018 21:00:00 13,5 11,5 12,0 15,8 8 4 18 10 NE 1025,3 6 0 0,0
19.10.2018 20:00:00 14,3 12,0 12,7 15,8 7 4 14 8 NNE 1024,6 6 0 0,0
19.10.2018 19:00:00 15,5 12,4 14,5 15,8 8 4 19 11 NNE 1023,8 7 43 0,0
19.10.2018 18:00:00 16,8 12,7 19,0 15,7 13 7 20 11 NNE 1022,7 7 60 0,0
19.10.2018 17:00:00 17,1 12,6 21,2 15,5 14 7 22 12 NE 1022,8 8 60 0,0
19.10.2018 16:00:00 16,4 12,4 19,8 15,3 14 7 22 12 NNE 1022,7 7 58 0,0
19.10.2018 15:00:00 15,2 12,1 16,4 15,2 11 6 23 12 ENE 1023,1 6 35 0,0
19.10.2018 14:00:00 13,9 11,8 15,0 15,0 14 8 23 13 NNE 1023,5 5 0 0,0
19.10.2018 13:00:00 13,0 11,2 14,7 15,0 13 7 23 12 N 1023,9 4,3 11 0,0
19.10.2018 12:00:00 13,8 11,0 17,2 14,9 11 6 20 11 NE 1023,3 8 60 0,0
19.10.2018 11:00:00 12,7 10,6 14,0 14,9 13 7 19 11 NE 1023,0 8 60 0,0
19.10.2018 10:00:00 11,1 9,8 10,0 15,0 13 7 21 11 NNE 1022,9 7 60 0,0
19.10.2018 09:00:00 9,8 9,2 8,6 15,1 6 3 12 7 NNE 1022,5 6 1 0,0
19.10.2018 08:00:00 9,8 9,0 8,7 15,2 7 4 11 6 N 1022,0 7 0 0,0
19.10.2018 07:00:00 10,3 9,2 9,3 15,3 6 4 15 8 NNE 1021,7 8 0 0,0
19.10.2018 06:00:00 10,9 9,7 9,9 15,4 8 5 16 9 NNE 1021,3 9 0 0,0
19.10.2018 05:00:00 11,4 9,8 10,4 15,6 9 5 17 9 NNE 1021,4 11 0 0,0
19.10.2018 04:00:00 11,4 9,8 9,9 15,7 9 5 14 8 N 1021,6 15 0 0,0
19.10.2018 03:00:00 11,5 9,9 9,7 15,9 6 4 13 7 N 1021,6 20 0 0,0
19.10.2018 02:00:00 12,1 10,2 10,6 16,0 7 4 13 7 NNE 1021,4 20 0 0,0
19.10.2018 01:00:00 12,5 10,4 10,7 16,1 6 3 14 8 NNE 1021,6 20 0 0,0
19.10.2018 00:00:00 13,4 10,7 12,2 16,2 9 5 21 11 NNE 1021,8 20 0 0,0
18.10.2018 23:00:00 14,3 11,1 13,3 16,3 11 6 22 12 NNE 1021,6 20 0 0,0
18.10.2018 22:00:00 15,2 11,2 14,2 16,5 13 7 27 14 NNE 1021,2 20 0 0,0
18.10.2018 21:00:00 16,2 11,4 15,2 16,5 14 8 30 16 NNE 1020,7 20 0 0,0
18.10.2018 20:00:00 16,8 11,9 15,6 16,6 12 6 26 14 NNE 1020,3 20 0 0,0
18.10.2018 19:00:00 18,2 12,6 17,3 16,6 11 6 28 15 N 1019,6 20 45 0,0
18.10.2018 18:00:00 20,1 12,6 22,1 16,5 18 10 34 18 NNE 1018,9 20 60 0,0
18.10.2018 17:00:00 20,7 13,2 24,2 16,3 17 9 29 16 NNE 1019,1 20 60 0,0
18.10.2018 16:00:00 20,9 13,6 25,3 16,0 16 8 30 16 NNE 1019,3 19 60 0,0
18.10.2018 15:00:00 20,6 13,3 24,9 15,8 13 7 23 12 NNE 1019,6 18 60 0,0
18.10.2018 14:00:00 19,4 13,1 22,8 15,5 13 7 24 13 NE 1020,4 15 60 0,0
18.10.2018 13:00:00 18,4 13,0 20,7 15,4 13 7 27 15 ENE 1021,0 13 60 0,0
18.10.2018 12:00:00 16,5 12,5 18,9 15,3 18 10 26 14 NE 1021,2 11 60 0,0
18.10.2018 11:00:00 15,1 12,0 16,8 15,3 16 9 30 16 NNE 1021,5 9 60 0,0
18.10.2018 10:00:00 13,8 11,8 12,8 15,4 7 4 15 8 NNE 1020,9 7 60 0,0
18.10.2018 09:00:00 12,5 11,4 11,3 15,5 9 5 18 10 NNE 1020,4 6 2 0,0
18.10.2018 08:00:00 12,3 11,2 10,9 15,6 6 3 15 8 NNE 1019,9 8 0 0,0
18.10.2018 07:00:00 12,5 11,2 11,5 15,7 6 3 21 11 NE 1019,7 11 0 0,0
18.10.2018 06:00:00 12,7 11,1 11,8 15,8 9 5 17 9 NNE 1019,4 15 0 0,0
18.10.2018 05:00:00 13,1 11,2 12,1 15,9 8 4 14 8 NE 1019,2 20 0 0,0
18.10.2018 04:00:00 13,9 11,4 13,2 16,0 7 4 15 8 NE 1019,2 20 0 0,0
18.10.2018 03:00:00 14,5 11,6 13,9 16,0 8 4 20 11 NNE 1019,1 20 0 0,0
18.10.2018 02:00:00 15,0 12,1 14,0 16,0 10 5 16 9 NNE 1019,0 20 0 0,0
18.10.2018 01:00:00 14,9 12,0 13,9 16,1 8 4 14 8 NNE 1018,9 20 0 0,0
18.10.2018 00:00:00 15,4 12,3 14,7 16,2 7 4 14 7 N 1019,1 20 0 0,0
17.10.2018 23:00:00 15,7 12,4 15,1 16,2 8 4 14 8 NNE 1018,9 20 0 0,0
17.10.2018 22:00:00 15,7 12,6 15,2 16,2 6 3 13 7 N 1018,6 20 0 0,0
17.10.2018 21:00:00 15,8 13,1 15,3 16,2 7 4 14 8 N 1018,5 20 0 0,0
17.10.2018 20:00:00 16,0 13,3 15,5 16,2 6 3 11 6 N 1018,1 20 0 0,0
17.10.2018 19:00:00 16,4 13,3 16,1 16,2 6 4 13 7 NNE 1017,6 20 0 0,0
17.10.2018 18:00:00 17,0 13,3 17,4 16,1 8 4 14 8 NNE 1017,3 20 0 0,0
17.10.2018 17:00:00 17,4 13,3 18,6 15,9 6 4 13 7 NE 1017,3 20 0 0,0
17.10.2018 16:00:00 17,9 13,0 19,7 15,7 5 3 10 6 NE 1017,7 20 0 0,0
17.10.2018 15:00:00 18,1 12,3 19,5 15,4 3 1 11 6 ENE 1018,0 20 19 0,0
17.10.2018 14:00:00 17,0 11,7 18,1 15,1 4 2 9 5 NNE 1018,6 20 8 0,0
17.10.2018 13:00:00 15,7 10,9 17,8 14,9 6 3 12 6 NE 1019,4 20 47 0,0
17.10.2018 12:00:00 15,0 11,0 18,5 14,8 4 2 9 5 NE 1019,4 20 60 0,0
17.10.2018 11:00:00 12,4 11,3 15,7 14,8 5 3 9 5 NNW 1019,7 14 60 0,0
17.10.2018 10:00:00 11,1 11,1 8,6 14,8 0 0 3 2 N 1019,8 10 42 0,0
17.10.2018 09:00:00 7,9 7,8 5,2 15,0 3 1 4 2 NNW 1019,7 5 13 0,2
17.10.2018 08:00:00 7,6 7,5 4,4 15,1 0 0 4 2 N 1019,8 3,4 0 0,0
17.10.2018 07:00:00 7,3 7,0 4,6 15,3 0 0 3 2 N 1019,6 0,3 0 0,0
17.10.2018 06:00:00 8,0 7,9 4,9 15,4 0 0 3 2 N 1019,6 2,8 0 0,0
17.10.2018 05:00:00 8,0 7,7 5,0 15,6 2 1 4 2 NW 1019,5 2,8 0 0,0
17.10.2018 04:00:00 8,4 8,0 5,4 15,8 0 0 3 2 N 1019,7 0,3 0 0,0

tt = Température de l'air
td = dewpoint
tt 5cm = Température de l'air 5cm
tt -20cm = Température de l'air -20cm
ff = Vitesse du vent
fx = gusts
dd = Direction du vent
ppp = reduced air pressure
vv = visibility
sd = Ensoleillement
rr = Quantités de précipitations

stations d'obs. à proximité